Regional Weather Roundup
Issued by NWS

Home | Current Version | Previous Version | Text Only | Print | Product List | Glossary Off
Versions: 1 2 3 4 5 6 7 8 9 10 11 12 13 14 15 16 17 18 19 20 21 22 23 24 25 26 27 28 29 30 31 32 33 34 35 36 37 38 39 40 41 42 43 44 45 46 47 48 49 50

000
ASUS43 KDMX 271807
RWRIA

WEATHER ROUNDUP FOR IOWA
NATIONAL WEATHER SERVICE DES MOINES IA
100 PM CDT SUN JUL 27 2014

NOTE: "FAIR" INDICATES FEW OR NO CLOUDS BELOW 12,000 FEET WITH NO
SIGNIFICANT WEATHER AND/OR OBSTRUCTIONS TO VISIBILITY.

* - THESE STATIONS ARE NOT NWS STATIONS...THUS NOT UNDER NWS
QUALITY CONTROL.  THEY ALSO DO NOT REPORT WEATHER SUCH
AS PRECIPITATION OR FOG.

IAZ001>003-012>014-020>022-031>034-043>046-271900-
   NORTHWEST IOWA

CITY           SKY/WX    TMP DP  RH WIND       PRES   REMARKS
CARROLL *      PTSUNNY   73  59  60 NW22G28   30.06R
CHEROKEE *     PTSUNNY   71  58  62 NW16G22   30.09R
DENISON *      MOSUNNY   73  59  60 NW16G29   30.06S
LE MARS *      PTSUNNY   73  59  60 N17G28    30.11R
ORANGE CITY *  PTSUNNY   72  55  56 NW15G22   30.11R
SHELDON *      CLOUDY    68  57  68 NW15G25   30.09R
SIOUX CITY     MOSUNNY   77  58  51 NW18G28   30.09S
6HR MIN TEMP:  62; 6HR MAX TEMP:  77; 6HR PCP: TRACE;

SPENCER        CLOUDY    70  57  63 NW21G28   30.07R
6HR MIN TEMP:  61; 6HR MAX TEMP:  71;

STORM LAKE *   PTSUNNY   70  59  68 NW18G29   30.09R
$$

IAZ055>058-069>071-079>083-090>094-271900-
   SOUTHWEST IOWA

CITY           SKY/WX    TMP DP  RH WIND       PRES   REMARKS
ATLANTIC *     SUNNY     77  59  53 NW17G29   30.05S
AUDUBON *      SUNNY     79  61  53 NW14G23   30.07R HX  80
CLARINDA *     SUNNY     81  59  47 NW14G26   30.08S HX  81
COUNCIL BLFS * SUNNY     79  59  50 NW15G24   30.08S HX  80
CRESTON *      SUNNY     77  59  53 NW26G36   30.04R
HARLAN  *      SUNNY     75  61  60 NW17G26   30.10S
LAMONI         SUNNY     81  57  43 NW18G31   30.01F HX  81
6HR MIN TEMP:  69; 6HR MAX TEMP:  81;

RED OAK *      SUNNY     81  59  47 NW20G28   30.06F HX  81
SHENANDOAH *   SUNNY     81  61  50 N17       30.08S HX  81
$$

IAZ047>049-059>061-072>074-084-271900-
   CENTRAL IOWA

CITY           SKY/WX    TMP DP  RH WIND       PRES   REMARKS
AMES           MOSUNNY   75  58  55 NW20G32   30.00R
6HR MIN TEMP:  65; 6HR MAX TEMP:  75;

ANKENY *       PTSUNNY   75  57  53 NW18G28   29.99S
CHARITON *     SUNNY     79  57  47 NW20G28   29.99R HX  80
DES MOINES     MOSUNNY   77  56  48 NW26G35   29.98R
6HR MIN TEMP:  69; 6HR MAX TEMP:  80;

GRINNELL*      PTSUNNY   73  59  60 NW17G28   29.97S
KNOXVILLE *    SUNNY     77  57  50 NW25G33   29.96R
MARSHALLTOWN   PTSUNNY   73  59  61 NW24G31   29.96S
6HR MIN TEMP:  65; 6HR MAX TEMP:  74;

PELLA *        MOSUNNY   76  60  57 NW18G28   29.98R
PERRY *        PTSUNNY   75  59  57 NW13G23   30.03R
$$

IAZ004>006-015-016-023>025-035-036-271900-
   NORTH CENTRAL IOWA

CITY           SKY/WX    TMP DP  RH WIND       PRES   REMARKS
ALGONA *       CLOUDY    68  57  68 NW21G29   30.03R
CLARION *      PTSUNNY   72  57  60 NW21G28   30.00S
ESTHERVILLE    CLOUDY    66  56  70 NW21G30   30.05R
6HR MIN TEMP:  62; 6HR MAX TEMP:  68;

FORT DODGE *   CLOUDY    72  57  60 NW10G20   30.03S
MASON CITY     CLOUDY    69  58  67 NW22G35   29.98R
6HR MIN TEMP:  62; 6HR MAX TEMP:  72;

FOREST CITY *  CLOUDY    70  55  60 NE23G29   29.98S
IOWA FALLS *   CLOUDY    72  57  60 NW18G29   29.99S
$$

IAZ007>011-017>019-026>030-037>042-050>054-066-271900-
   NORTHEAST IOWA

CITY           SKY/WX    TMP DP  RH WIND       PRES   REMARKS
CEDAR RAPIDS   PTSUNNY   74  58  57 NW25G33   29.90R
6HR MIN TEMP:  68; 6HR MAX TEMP:  76;

CHARLES CITY * CLOUDY    68  59  73 NW17G23   29.94R
CLINTON *      MOSUNNY   77  57  50 NW23G33   29.87R
DECORAH *      MOSUNNY   72  57  60 NW16G23   29.87S
DUBUQUE        PTSUNNY   71  59  65 NW12      29.86R
6HR MIN TEMP:  68; 6HR MAX TEMP:  74;

MONTICELLO *   PTSUNNY   73  59  60 NW21G30   29.88R
OELWEIN *      CLOUDY    70  59  68 NW17G29   29.92R
WATERLOO       CLOUDY    71  56  58 NW18G28   29.92R
6HR MIN TEMP:  67; 6HR MAX TEMP:  74;

$$

IAZ064-065-067-068-078-271900-
   EAST CENTRAL IOWA

CITY           SKY/WX    TMP DP  RH WIND       PRES   REMARKS
DAVENPORT      PTSUNNY   75  58  55 NW16G28   29.86R
6HR MIN TEMP:  67; 6HR MAX TEMP:  77;

IOWA CITY      MOSUNNY   76  59  55 NW26G33   29.91R
6HR MIN TEMP:  70; 6HR MAX TEMP:  79;

MT. PLEASANT * SUNNY     80  58  46 NW16G23   29.90S HX  80
MUSCATINE *    MOSUNNY   81  59  47 W21G32    29.88R HX  81
QUAD CITIES    SUNNY     80  58  46 W23G32    29.84R HX  80
6HR MIN TEMP:  70; 6HR MAX TEMP:  81;

$$

IAZ062-063-075>077-085>089-095>099-271900-
   SOUTHEAST IOWA

CITY           SKY/WX    TMP DP  RH WIND       PRES   REMARKS
BURLINGTON     SUNNY     81  61  50 NW15G24   29.88S HX  82
6HR MIN TEMP:  72; 6HR MAX TEMP:  81;

FAIRFIELD *    SUNNY     79  61  53 NW20G28   29.92S HX  80
FORT MADISON * SUNNY     81  59  47 W17G30    29.91S HX  81
KEOKUK *       SUNNY     82  61  47 W17G25    29.91S HX  83
OSKALOOSA *      N/A     76  61  58 NW21G32   29.95R
CENTERVILLE *  SUNNY     81  59  47 W16G25    29.99S HX  81
OTTUMWA        SUNNY     78  57  48 NW21G35   29.94R
6HR MIN TEMP:  71; 6HR MAX TEMP:  79;

WASHINGTON *   SUNNY     77  61  57 NW23G33   29.91R
$$

ABBREVIATIONS USED IN REMARKS
   TC - TEMPERATURES IN CELSIUS
  WCI - WIND CHILL INDEX
   HX - HEAT INDEX
  VSB - VISIBILITY
$$




USA.gov is the U.S. government's official web portal to all federal, state and local government web resources and services.